RH
18 16 15 12 10 13 20 20 18 16 15 15 12 9 11 15 19 19 27 31 30 29 35 33 27 23 24 36 28 13 11 11 10 9 8 7 6 7 9 14 23 26 24 28 50 52 53 54 53
18 18 18 17 17 19 18 18 16 16 16 17 13 22 30 29 32 27 32 34 24 28 31 28 26 25 25 36 24 12 14 13 10 9 9 7 6 7 11 20 27 29 31 27 41 50 56 58 63
20 20 18 16 17 23 22 16 16 17 17 15 16 21 25 30 29 28 28 23 22 21 27 30 30 26 28 37 18 14 15 12 11 10 10 9 7 11 23 24 25 32 35 33 36 45 52 60 66
22 22 20 17 20 25 24 18 21 22 20 20 17 17 33 34 28 24 25 22 18 17 21 32 36 29 34 38 14 16 15 13 12 11 11 11 9 10 17 15 19 28 36 34 42 46 54 61 68
22 22 22 19 26 28 20 22 25 28 27 25 23 28 30 34 34 34 31 28 27 22 17 23 43 38 37 38 15 18 15 13 13 12 12 12 11 10 14 13 16 26 38 41 44 48 60 65 67
22 23 23 29 31 30 24 24 28 29 30 28 29 31 31 33 36 36 36 35 33 29 22 16 33 47 42 40 17 19 16 14 14 14 13 13 13 11 9 10 10 18 29 38 46 48 60 66 70
21 24 25 32 32 34 32 28 29 31 30 29 31 30 30 31 32 32 30 31 30 27 25 20 19 47 48 44 20 19 17 15 16 16 14 15 14 13 9 8 9 11 33 32 33 46 58 64 73
29 30 31 33 29 32 25 28 29 29 27 26 25 24 26 30 30 28 17 19 24 28 22 22 21 20 50 48 29 19 19 16 17 18 15 16 16 14 11 9 11 14 24 22 20 32 56 70 75
34 32 29 30 29 32 28 24 20 20 12 13 18 20 22 22 22 21 10 11 17 16 16 17 22 22 35 71 60 41 25 21 16 17 17 16 17 16 13 11 11 11 15 26 17 24 36 63 73
29 27 28 25 23 26 28 29 24 13 9 9 9 9 13 16 15 12 10 4 5 9 11 15 16 24 40 54 62 69 48 25 21 16 18 17 18 18 16 13 13 13 14 12 12 19 27 50 67
26 24 23 23 22 20 21 20 16 10 8 8 10 11 13 12 9 8 7 3 3 3 3 7 12 13 21 27 40 52 64 50 24 18 17 19 18 19 20 16 15 15 16 15 12 15 24 38 52
18 19 19 19 18 17 17 17 13 4 6 6 8 9 9 9 7 5 5 5 4 4 4 4 3 5 8 14 23 28 45 63 59 24 18 18 20 19 20 21 17 17 18 18 14 12 21 31 39
17 16 16 17 18 16 16 12 5 5 5 8 10 9 8 6 5 6 6 6 5 5 5 5 6 5 4 5 8 12 22 37 52 65 32 19 19 21 20 20 22 18 21 20 18 14 16 31 38
16 15 15 15 15 15 13 8 6 6 7 10 11 11 10 10 11 10 8 7 8 9 9 9 7 6 7 8 7 6 5 9 27 41 57 50 20 20 24 21 21 22 20 22 21 17 15 30 37
19 18 16 16 15 15 14 10 10 9 10 13 13 12 11 12 11 11 12 13 14 16 16 9 6 4 3 3 4 5 6 5 4 7 25 56 55 21 24 24 23 22 23 22 24 21 17 20 35
18 21 24 31 18 12 11 11 11 11 12 14 12 12 12 12 12 12 14 15 22 22 7 3 3 3 2 2 2 1 2 3 3 4 4 9 40 62 30 36 25 24 24 24 26 24 21 19 34
23 27 28 16 12 11 11 12 12 12 12 12 12 12 12 12 12 12 15 23 29 9 10 5 2 2 2 2 1 1 1 1 2 3 3 4 4 22 64 64 29 29 27 27 25 28 24 21 29
30 24 16 16 15 12 12 12 12 12 12 13 12 12 13 12 12 14 19 30 17 14 14 12 4 3 3 2 2 2 2 1 2 3 6 7 5 4 10 62 82 33 32 32 27 28 28 24 24
24 20 18 16 13 14 13 13 11 10 11 12 14 13 13 12 14 15 19 23 18 21 20 11 3 5 5 6 7 6 6 6 6 3 4 11 12 14 6 10 70 82 36 34 34 29 34 29 24
24 24 19 17 13 14 16 14 12 11 12 12 17 18 17 14 15 18 24 27 25 24 18 13 5 7 9 11 16 16 16 12 15 13 8 10 11 11 17 8 25 94 85 45 37 34 32 34 28
27 20 18 17 14 14 14 14 14 13 12 14 15 19 25 17 18 22 25 26 27 25 16 15 6 10 14 16 17 20 26 27 23 21 14 10 14 16 19 19 6 31 97 89 44 44 33 36 35
25 22 20 18 17 15 16 15 13 14 16 18 24 30 30 25 27 25 25 32 31 20 19 16 5 9 12 18 22 27 25 24 36 31 28 28 30 26 21 26 22 6 67 96 75 42 40 35 41
23 20 18 18 16 16 16 14 14 12 15 22 35 41 33 27 30 33 36 32 22 21 19 6 9 10 17 22 26 30 45 55 28 26 24 22 20 22 31 34 35 18 5 64 99 67 52 40 41
24 21 20 18 18 23 17 14 13 12 14 22 39 41 34 36 35 35 32 26 23 19 8 7 15 16 22 29 28 46 52 32 24 33 31 21 25 23 23 25 39 33 15 13 91 97 58 45 43
25 23 22 26 27 27 15 15 12 16 23 32 39 35 42 40 34 33 29 26 20 11 5 14 17 18 27 41 43 38 51 32 39 46 49 38 27 26 25 30 27 39 29 17 34 86 99 65 55
26 24 24 39 50 44 25 30 33 30 36 51 56 48 43 36 36 34 29 22 11 6 11 17 21 22 33 49 58 59 73 65 70 71 64 51 42 34 32 24 29 34 41 20 21 45 85 99 62
28 27 24 25 35 43 31 50 64 63 61 58 53 46 43 42 38 32 26 16 7 11 13 21 24 27 44 54 63 68 83 97 90 85 79 64 62 63 88 37 31 38 60 39 45 30 32 31 96
28 27 26 26 48 47 31 41 40 55 61 58 56 52 47 41 36 32 27 13 13 15 16 28 29 34 43 46 59 78 96 95 92 99 97 72 66 65 93 84 60 67 86 76 57 40 36 18 73
29 29 31 31 28 57 52 36 40 46 57 64 61 54 41 38 36 34 19 14 15 15 15 23 33 36 43 40 48 75 87 92 95 98 99 98 82 48 70 92 91 95 97 80 66 52 43 49 47
30 28 30 38 42 34 38 48 50 69 68 65 59 48 45 44 40 31 17 14 14 15 15 21 38 40 41 42 34 76 78 95 99 99 100 98 98 63 49 64 68 56 64 56 49 50 54 32 56
Wind_Speed
5 4 5 6 6 3 8 6 8 10 8 8 0 4 4 1 4 4 8 10 13 13 12 11 14 14 13 13 13 14 13 13 13 12 11 10 10 9 8 7 5 6 7 7 7 7 7 6 6
5 4 3 4 5 3 9 7 8 7 11 10 2 4 3 5 3 2 8 10 11 11 11 11 14 15 15 15 14 14 13 14 14 14 13 12 10 9 9 7 6 5 6 7 7 7 7 7 6
7 5 5 5 8 5 6 1 1 7 6 2 4 6 3 5 2 7 13 15 13 11 8 12 11 14 16 16 15 14 14 14 14 15 15 13 12 11 10 10 7 6 6 7 7 7 8 8 7
7 8 8 10 8 4 11 7 4 4 5 4 3 6 5 3 7 14 15 13 11 12 12 8 12 15 17 17 16 15 15 14 14 15 15 15 13 12 13 11 9 8 8 7 8 8 8 9 9
8 8 11 10 3 10 10 10 4 6 5 1 6 5 6 5 11 11 17 17 16 15 15 12 13 16 18 18 16 15 15 14 14 14 15 15 14 13 13 13 11 9 9 8 9 9 9 10 10
9 11 9 7 2 4 12 13 11 9 7 4 5 7 6 6 11 13 16 21 22 20 18 17 14 19 20 20 19 16 15 14 14 15 15 14 14 14 14 13 13 10 10 10 10 10 11 11 11
11 11 10 9 3 4 8 16 13 9 9 6 6 5 8 9 8 15 18 20 26 25 22 21 17 15 20 21 20 19 17 16 15 15 16 14 14 14 15 14 13 13 11 12 12 12 12 13 12
12 10 8 3 4 11 6 8 10 5 8 8 8 11 13 15 13 19 23 23 26 29 27 23 20 16 19 22 22 22 21 20 19 17 17 15 14 14 15 15 14 13 13 14 14 13 13 13 12
10 8 3 2 4 12 11 6 1 3 8 10 10 9 14 15 17 20 22 22 25 26 25 23 22 21 19 21 23 24 22 21 21 20 19 17 16 15 16 16 15 14 14 15 15 14 15 15 14
9 8 5 2 8 7 11 11 8 4 9 6 6 12 16 17 18 23 25 26 24 24 24 24 24 23 22 20 23 25 26 26 23 21 21 20 18 17 17 19 17 15 16 16 17 15 15 16 15
9 9 6 13 15 14 12 11 12 11 15 12 12 14 15 21 25 24 26 23 22 21 22 23 25 24 26 24 25 29 31 31 28 25 23 22 22 21 19 19 20 18 17 17 18 16 15 17 18
14 12 14 18 17 16 17 18 17 14 15 16 17 17 20 24 26 23 21 19 18 20 21 23 24 26 27 29 28 26 32 33 33 32 29 26 24 25 24 22 20 21 20 18 18 18 18 18 18
16 15 15 22 21 20 22 20 12 13 13 13 14 17 20 21 22 22 22 22 22 22 20 21 23 26 28 31 32 31 30 29 36 35 35 33 29 28 27 27 24 23 23 21 19 19 20 19 19
17 19 18 21 25 26 19 10 10 10 12 13 14 21 21 22 20 21 23 24 25 25 26 25 24 25 27 29 33 35 35 34 34 36 38 40 37 33 31 31 29 26 24 24 22 21 21 20 21
23 22 23 23 21 24 21 8 6 11 13 11 20 21 24 23 24 25 25 27 27 25 26 26 26 26 28 29 31 33 36 39 39 39 39 40 43 41 37 35 34 30 27 26 27 24 22 23 24
17 19 22 18 20 26 21 11 4 4 8 13 23 26 26 24 28 27 28 27 24 26 29 33 33 33 33 33 34 35 36 39 43 45 44 43 45 46 46 41 39 35 32 30 30 29 23 23 25
19 20 16 8 10 14 22 16 13 7 9 21 26 27 27 26 31 32 30 25 25 27 33 36 36 37 37 37 37 39 39 40 43 46 49 49 49 48 49 47 45 40 38 36 31 32 26 23 24
10 14 9 16 15 14 21 20 13 15 18 21 30 31 29 31 35 34 30 26 27 33 39 45 43 41 42 43 44 45 47 48 45 45 47 48 52 53 54 53 48 47 44 41 37 34 31 25 22
13 13 11 10 4 19 22 21 16 17 23 26 30 35 34 34 35 35 32 30 30 38 42 47 45 43 43 43 47 48 46 43 46 50 51 49 50 54 58 59 57 52 52 48 42 37 36 31 26
16 18 15 15 12 15 19 18 18 19 28 29 31 35 36 36 37 36 32 33 36 42 45 49 48 46 45 46 49 50 51 51 53 50 51 54 54 56 60 62 62 59 54 54 49 44 40 37 32
20 20 19 17 12 14 16 20 22 29 36 33 34 37 35 37 37 36 36 39 42 44 48 53 48 46 45 47 51 55 51 52 55 51 49 52 55 60 60 64 66 65 60 54 56 50 47 43 38
24 21 22 21 21 11 12 6 26 30 30 34 37 38 34 35 36 37 39 41 41 45 50 55 47 44 45 46 52 58 56 53 38 37 41 44 46 52 61 60 65 65 67 55 59 57 54 48 44
21 20 19 16 16 19 19 14 17 33 35 36 38 33 32 34 35 35 36 38 43 48 56 53 44 44 45 46 52 54 41 35 35 35 39 43 45 46 51 59 60 67 68 65 56 62 60 54 49
27 20 18 18 17 10 23 24 20 29 35 40 37 32 32 34 33 34 34 37 41 47 51 45 41 41 42 43 49 43 35 36 35 37 41 41 44 47 51 52 53 63 68 69 70 67 68 60 55
26 18 4 4 3 6 7 20 34 20 31 31 33 33 31 25 28 31 34 37 42 47 44 40 39 40 39 40 42 43 36 32 34 36 40 41 44 46 45 52 54 52 62 71 80 82 51 65 62
28 25 12 6 5 3 11 9 13 26 29 21 21 22 18 20 25 27 32 38 41 41 40 40 39 40 40 39 41 39 35 34 36 38 40 36 38 41 43 45 52 49 53 64 69 65 86 45 61
26 33 30 12 8 2 6 6 11 22 22 20 19 16 17 21 23 28 34 38 38 38 39 40 41 40 40 40 39 41 37 33 37 36 36 30 28 28 28 32 39 38 45 51 52 59 46 67 54
30 21 16 17 5 5 9 15 16 28 27 24 18 15 17 22 26 31 36 36 34 37 38 38 39 40 40 40 41 40 35 34 38 39 36 26 23 25 20 19 24 35 38 46 45 45 49 55 67
31 24 16 15 13 4 3 7 17 20 25 20 16 17 21 24 28 30 31 32 34 37 39 38 39 39 38 38 39 39 35 32 36 34 33 26 22 22 25 20 20 30 36 44 44 43 48 52 71
28 33 33 14 6 15 11 8 11 15 21 19 16 18 21 23 25 29 31 33 34 36 37 37 37 38 38 37 37 37 34 30 36 33 22 31 18 19 22 25 29 29 33 37 44 46 51 53 73
Wind_Direction
291 289 298 295 285 334 354 352 167 148 126 99 90 287 307 232 346 316 315 305 337 326 302 263 229 226 239 254 270 284 296 304 307 306 302 297 294 290 281 273 266 271 258 239 236 240 244 244 235
257 275 286 295 264 32 53 108 170 149 136 119 74 44 111 58 58 330 299 314 318 305 294 266 231 229 238 253 267 278 290 297 303 305 301 299 295 286 279 269 257 245 251 247 242 245 242 247 244
229 234 234 240 258 96 23 340 276 117 120 159 154 217 218 103 293 273 272 293 292 299 298 258 227 229 239 254 269 277 288 294 301 305 305 302 299 289 278 269 254 231 230 237 239 244 246 242 236
220 215 222 229 247 344 335 188 127 115 139 176 233 235 124 137 242 270 282 293 290 287 287 268 251 235 237 252 264 277 287 293 300 304 304 304 299 290 281 273 263 242 228 225 230 238 245 243 234
211 211 216 223 326 358 152 136 176 143 122 192 249 190 212 237 271 278 283 281 286 293 285 273 243 245 244 251 256 271 281 288 294 298 303 304 300 294 287 281 266 254 237 229 232 235 235 239 239
200 208 195 211 73 54 167 167 181 174 161 207 249 173 192 232 270 276 279 283 289 293 290 269 257 237 238 246 251 259 265 275 286 294 298 301 301 297 288 281 280 262 255 240 232 238 235 234 232
199 204 212 242 326 111 182 193 202 202 190 185 199 233 222 220 278 304 299 291 289 292 285 278 270 257 242 246 252 260 263 266 272 282 288 292 296 295 290 283 279 274 266 257 248 237 236 238 230
186 216 229 263 331 160 148 218 194 201 241 232 221 251 246 229 249 281 300 295 289 284 278 271 270 262 248 247 253 257 262 265 270 274 278 281 285 287 287 284 280 278 274 269 264 250 238 237 230
208 234 253 233 217 173 183 206 199 257 257 216 213 250 258 261 255 270 285 278 274 280 280 272 265 258 239 241 243 247 252 257 260 265 270 272 277 280 280 278 276 276 273 272 267 257 251 237 235
196 248 251 254 302 233 218 235 258 223 252 222 213 241 259 265 260 261 263 271 266 272 278 281 275 272 265 247 249 251 248 248 250 256 264 269 268 270 273 275 275 274 275 273 270 258 252 246 239
211 234 244 285 283 279 274 280 280 254 231 237 230 233 242 261 270 273 274 272 274 278 277 275 278 276 276 272 253 252 256 252 247 247 250 258 264 266 267 271 277 275 275 276 276 265 252 246 242
227 223 252 269 271 278 285 283 282 258 245 244 250 267 270 272 278 281 281 280 282 276 273 273 273 274 273 273 271 265 254 257 258 252 246 248 254 260 263 266 268 271 269 271 273 270 256 247 245
224 224 242 245 259 271 274 286 271 245 241 246 266 268 271 270 277 282 287 293 294 293 289 281 273 272 273 272 274 271 267 259 256 259 256 248 246 252 257 260 261 264 267 267 268 268 262 252 243
220 229 226 240 253 259 271 281 266 225 232 243 258 266 264 284 286 284 287 290 292 295 302 299 288 279 274 272 271 273 272 268 261 256 254 255 249 245 247 252 256 257 259 263 262 262 260 255 242
240 239 245 246 251 258 268 237 251 236 233 248 257 266 276 285 295 286 284 289 297 306 302 301 298 292 287 280 277 275 274 273 267 262 258 252 254 247 245 244 248 251 255 258 259 257 258 252 242
248 252 255 259 245 240 240 228 185 172 224 244 265 271 276 285 293 289 286 297 304 306 311 309 304 300 296 292 286 278 273 270 270 269 262 257 251 251 247 242 242 244 247 250 254 256 254 250 242
249 255 271 261 231 228 223 235 222 196 236 244 257 262 267 280 288 289 292 295 297 304 316 320 312 306 302 297 290 286 281 276 269 266 265 262 256 251 249 246 242 238 241 243 246 254 253 240 240
254 236 276 293 279 238 228 229 231 218 238 250 256 260 261 279 283 285 286 283 292 310 318 322 317 312 309 305 301 298 297 291 281 269 262 263 261 256 248 246 243 240 237 238 238 243 249 240 235
251 261 270 270 311 218 216 225 232 246 266 264 249 255 259 274 274 280 281 285 298 307 313 316 313 313 311 309 308 307 303 299 293 282 264 260 264 263 256 245 242 238 240 236 236 236 242 240 226
260 268 249 259 264 213 229 233 243 262 267 269 249 250 249 263 266 272 273 275 289 306 314 319 317 316 315 313 310 309 307 301 297 284 267 256 263 261 255 251 240 238 237 238 232 233 233 237 227
252 238 235 246 243 233 245 245 252 257 267 260 250 248 242 256 263 269 277 285 298 306 314 317 317 317 312 308 310 310 305 302 300 288 273 264 262 257 252 248 245 236 234 235 234 229 231 230 231
236 242 248 255 260 249 235 264 253 264 261 250 238 233 235 248 256 266 275 283 294 309 319 319 314 313 313 312 315 313 311 305 294 289 281 275 265 255 254 248 242 239 234 231 232 230 230 228 229
239 243 254 256 254 259 249 266 258 257 251 247 230 228 237 249 260 269 282 296 310 318 316 316 315 314 313 315 325 320 312 302 301 302 291 280 273 264 259 255 244 235 236 232 229 231 229 228 226
242 239 252 256 259 260 245 241 261 245 252 240 228 231 242 245 259 274 290 306 316 317 313 312 314 317 317 322 332 323 312 307 307 309 308 298 285 266 255 257 252 237 233 231 236 225 226 225 225
224 223 231 267 204 235 234 229 236 238 252 250 234 237 237 250 270 286 301 316 316 311 312 313 319 322 324 322 328 333 313 305 308 310 307 302 291 277 266 254 252 242 235 231 232 240 208 223 227
223 217 198 214 206 236 210 231 248 242 243 229 224 226 247 266 284 306 317 315 312 315 317 321 325 328 326 321 325 325 313 322 316 314 311 298 292 281 275 261 251 244 232 234 240 244 232 204 216
221 223 229 249 267 297 227 228 214 219 220 221 229 248 266 285 312 315 312 315 319 319 321 328 331 329 326 326 325 329 312 312 318 321 313 294 299 291 288 271 252 242 233 233 241 244 248 237 219
225 231 198 211 196 223 232 212 221 216 222 228 234 257 285 298 307 309 313 321 324 323 326 329 329 328 327 331 332 331 323 309 307 308 318 305 300 285 290 253 230 224 228 230 239 242 242 236 234
207 212 203 212 226 189 192 231 236 253 226 226 235 255 271 292 300 312 323 320 319 321 324 327 328 330 330 332 333 338 327 309 302 311 319 330 305 281 273 249 230 234 238 235 238 234 230 239 217
229 238 215 205 202 237 258 250 258 213 218 231 254 272 281 297 319 324 319 317 320 318 319 325 330 333 333 333 335 336 334 316 312 315 327 327 302 278 269 255 245 242 244 246 237 234 233 240 215